Time,TemperatureF,DewpointF,PressureIn,WindDirection,WindDirectionDegrees,WindSpeedMPH,WindSpeedGustMPH,Humidity,HourlyPrecipIn,Conditions,Clouds,dailyrainin,SoftwareType,DateUTC
2013-08-10 02:33:00,62.0,59.0,30.04,NNW,348,0.0,0.0,90,0.00,,,0.00,,2013-08-10 07:33:00,
2013-08-10 02:43:00,61.0,58.0,30.04,NNW,348,0.0,0.0,90,0.00,,,0.00,,2013-08-10 07:43:00,
2013-08-10 02:52:00,61.0,58.0,30.04,NNW,348,0.0,0.0,90,0.00,,,0.00,,2013-08-10 07:52:00,
2013-08-10 03:01:00,61.0,58.0,30.05,NNW,348,0.0,0.0,91,0.00,,,0.00,,2013-08-10 08:01:00,
2013-08-10 03:12:00,60.0,58.0,30.05,NNW,348,0.0,0.0,92,0.00,,,0.00,,2013-08-10 08:12:00,
2013-08-10 03:22:00,60.0,58.0,30.05,NNW,348,0.0,0.0,92,0.00,,,0.00,,2013-08-10 08:22:00,
2013-08-10 03:32:00,60.0,58.0,30.05,NNW,348,0.0,0.0,92,0.00,,,0.00,,2013-08-10 08:32:00,
2013-08-10 03:43:00,60.0,58.0,30.05,NNW,348,0.0,0.0,92,0.00,,,0.00,,2013-08-10 08:43:00,
2013-08-10 03:53:00,59.0,57.0,30.06,NNW,348,0.0,0.0,92,0.00,,,0.00,,2013-08-10 08:53:00,
2013-08-10 04:02:00,59.0,57.0,30.06,NNW,348,0.0,0.0,93,0.00,,,0.00,,2013-08-10 09:02:00,
2013-08-10 04:12:00,59.0,57.0,30.06,NNW,348,0.0,0.0,93,0.00,,,0.00,,2013-08-10 09:12:00,
2013-08-10 04:22:00,58.0,56.0,30.06,NNW,348,0.0,0.0,93,0.00,,,0.00,,2013-08-10 09:22:00,
2013-08-10 04:32:00,58.0,56.0,30.06,NNW,348,0.0,0.0,93,0.00,,,0.00,,2013-08-10 09:32:00,
2013-08-10 04:43:00,58.0,56.0,30.06,NNW,348,0.0,0.0,94,0.00,,,0.00,,2013-08-10 09:43:00,
2013-08-10 04:52:00,58.0,56.0,30.06,NNW,348,0.0,0.0,94,0.00,,,0.00,,2013-08-10 09:52:00,
2013-08-10 05:02:00,58.0,56.0,30.06,NNW,348,0.0,0.0,94,0.00,,,0.00,,2013-08-10 10:02:00,
2013-08-10 05:11:00,58.0,56.0,30.07,NNW,348,0.0,0.0,94,0.00,,,0.00,,2013-08-10 10:11:00,
2013-08-10 05:22:00,57.0,55.0,30.07,NNW,348,0.0,0.0,94,0.00,,,0.00,,2013-08-10 10:22:00,
2013-08-10 05:33:00,57.0,55.0,30.07,NNW,348,0.0,0.0,94,0.00,,,0.00,,2013-08-10 10:33:00,
2013-08-10 05:44:00,57.0,55.0,30.07,NNW,348,0.0,0.0,94,0.00,,,0.00,,2013-08-10 10:44:00,
2013-08-10 05:52:00,57.0,55.0,30.07,NNW,348,0.0,0.0,94,0.00,,,0.00,,2013-08-10 10:52:00,
2013-08-10 06:02:00,56.0,54.0,30.07,NNW,348,0.0,0.0,94,0.00,,,0.00,,2013-08-10 11:02:00,
2013-08-10 06:11:00,56.0,55.0,30.07,NNW,348,0.0,0.0,95,0.00,,,0.00,,2013-08-10 11:11:00,
2013-08-10 06:22:00,56.0,55.0,30.08,NNW,348,0.0,0.0,95,0.00,,,0.00,,2013-08-10 11:22:00,
2013-08-10 06:33:00,56.0,55.0,30.08,NNW,348,0.0,0.0,95,0.00,,,0.00,,2013-08-10 11:33:00,
2013-08-10 06:43:00,56.0,55.0,30.08,NNW,348,0.0,0.0,95,0.00,,,0.00,,2013-08-10 11:43:00,
2013-08-10 06:53:00,56.0,55.0,30.08,NNW,348,0.0,0.0,96,0.00,,,0.00,,2013-08-10 11:53:00,
2013-08-10 07:01:00,57.0,56.0,30.08,NNW,348,0.0,0.0,96,0.00,,,0.00,,2013-08-10 12:01:00,
2013-08-10 07:11:00,57.0,56.0,30.08,NNW,348,0.0,0.0,96,0.00,,,0.00,,2013-08-10 12:11:00,
2013-08-10 07:22:00,57.0,56.0,30.08,NNW,348,0.0,0.0,97,0.00,,,0.00,,2013-08-10 12:22:00,
2013-08-10 07:32:00,58.0,57.0,30.08,NNW,348,0.0,0.0,97,0.00,,,0.00,,2013-08-10 12:32:00,
2013-08-10 07:42:00,58.0,57.0,30.08,NNW,348,0.0,0.0,97,0.00,,,0.00,,2013-08-10 12:42:00,
2013-08-10 07:52:00,59.0,58.0,30.08,NNW,348,0.0,0.0,97,0.00,,,0.00,,2013-08-10 12:52:00,
2013-08-10 08:01:00,59.0,58.0,30.08,North,351,0.0,0.0,97,0.00,,,0.00,,2013-08-10 13:01:00,
2013-08-10 08:11:00,60.0,59.0,30.09,North,351,0.0,0.0,96,0.00,,,0.00,,2013-08-10 13:11:00,
2013-08-10 08:21:00,61.0,60.0,30.09,North,351,0.0,0.0,95,0.00,,,0.00,,2013-08-10 13:21:00,
2013-08-10 08:32:00,62.0,60.0,30.09,North,351,0.0,0.0,94,0.00,,,0.00,,2013-08-10 13:32:00,
2013-08-10 08:43:00,63.0,61.0,30.09,North,351,0.0,0.0,92,0.00,,,0.00,,2013-08-10 13:43:00,
2013-08-10 08:52:00,64.0,61.0,30.09,North,351,0.0,0.0,90,0.00,,,0.00,,2013-08-10 13:52:00,
2013-08-10 09:02:00,65.0,61.0,30.09,North,351,0.0,0.0,87,0.00,,,0.00,,2013-08-10 14:02:00,
2013-08-10 09:12:00,67.0,63.0,30.09,North,351,0.0,0.0,87,0.00,,,0.00,,2013-08-10 14:12:00,
2013-08-10 09:22:00,68.0,62.0,30.09,NNW,344,0.0,0.0,81,0.00,,,0.00,,2013-08-10 14:22:00,
2013-08-10 09:32:00,70.0,64.0,30.09,NNW,334,0.0,0.0,80,0.00,,,0.00,,2013-08-10 14:32:00,
2013-08-10 09:43:00,72.0,63.0,30.09,NNW,335,0.0,0.0,74,0.00,,,0.00,,2013-08-10 14:43:00,
2013-08-10 09:53:00,73.0,63.0,30.09,NNW,335,0.0,0.0,71,0.00,,,0.00,,2013-08-10 14:53:00,
2013-08-10 10:02:00,74.0,63.0,30.09,West,279,0.0,0.0,69,0.00,,,0.00,,2013-08-10 15:02:00,
2013-08-10 10:12:00,75.0,65.0,30.10,North,0,0.0,0.0,71,0.00,,,0.00,,2013-08-10 15:12:00,
2013-08-10 10:22:00,76.0,63.0,30.10,North,355,0.0,0.0,65,0.00,,,0.00,,2013-08-10 15:22:00,
2013-08-10 10:34:00,76.0,63.0,30.10,SE,126,0.0,0.0,65,0.00,,,0.00,,2013-08-10 15:34:00,
2013-08-10 10:43:00,78.0,65.0,30.10,NE,43,0.0,0.0,64,0.00,,,0.00,,2013-08-10 15:43:00,
2013-08-10 11:01:00,79.0,62.0,30.11,North,355,0.0,0.0,57,0.00,,,0.00,,2013-08-10 16:01:00,
2013-08-10 11:11:00,80.0,62.0,30.11,North,355,0.0,0.0,54,0.00,,,0.00,,2013-08-10 16:11:00,
2013-08-10 11:43:00,80.0,61.0,30.11,NE,42,0.0,0.0,53,0.00,,,0.00,,2013-08-10 16:43:00,
2013-08-10 11:53:00,79.0,61.0,30.11,SSE,151,0.0,0.0,55,0.00,,,0.00,,2013-08-10 16:53:00,
2013-08-10 12:02:00,80.0,61.0,30.11,NNE,30,0.0,0.0,52,0.00,,,0.00,,2013-08-10 17:02:00,
2013-08-10 12:12:00,82.0,60.0,30.11,NNE,30,0.0,0.0,48,0.00,,,0.00,,2013-08-10 17:12:00,
2013-08-10 12:33:00,81.0,58.0,30.10,SSW,198,0.0,0.0,46,0.00,,,0.00,,2013-08-10 17:33:00,
2013-08-10 12:43:00,81.0,58.0,30.10,NW,311,0.0,0.0,46,0.00,,,0.00,,2013-08-10 17:43:00,
2013-08-10 12:52:00,81.0,59.0,30.10,NE,41,0.0,0.0,47,0.00,,,0.00,,2013-08-10 17:52:00,
2013-08-10 13:11:00,81.0,60.0,30.10,SSW,207,0.0,0.0,49,0.00,,,0.00,,2013-08-10 18:11:00,
2013-08-10 13:23:00,81.0,59.0,30.09,West,267,0.0,0.0,48,0.00,,,0.00,,2013-08-10 18:23:00,
2013-08-10 13:32:00,80.0,60.0,30.09,SSW,210,0.0,0.0,50,0.00,,,0.00,,2013-08-10 18:32:00,
2013-08-10 13:44:00,80.0,60.0,30.09,NW,309,0.0,0.0,50,0.00,,,0.00,,2013-08-10 18:44:00,
2013-08-10 13:52:00,81.0,58.0,30.09,SW,231,0.0,0.0,45,0.00,,,0.00,,2013-08-10 18:52:00,
2013-08-10 14:02:00,82.0,57.0,30.09,NNW,347,0.0,0.0,43,0.00,,,0.00,,2013-08-10 19:02:00,
2013-08-10 14:11:00,83.0,56.0,30.10,North,355,0.0,0.0,40,0.00,,,0.00,,2013-08-10 19:11:00,
2013-08-10 14:33:00,84.0,58.0,30.09,North,357,0.0,0.0,42,0.00,,,0.00,,2013-08-10 19:33:00,
2013-08-10 15:12:00,85.0,59.0,30.09,NNE,22,0.0,0.0,41,0.00,,,0.00,,2013-08-10 20:12:00,
2013-08-10 15:22:00,85.0,58.0,30.09,North,355,0.0,0.0,40,0.00,,,0.00,,2013-08-10 20:22:00,
2013-08-10 15:33:00,84.0,59.0,30.09,South,184,0.0,0.0,43,0.00,,,0.00,,2013-08-10 20:33:00,
2013-08-10 15:43:00,83.0,55.0,30.09,NNW,336,0.0,0.0,39,0.00,,,0.00,,2013-08-10 20:43:00,
2013-08-10 15:53:00,83.0,57.0,30.08,North,9,0.0,0.0,41,0.00,,,0.00,,2013-08-10 20:53:00,
2013-08-10 16:02:00,82.0,57.0,30.08,NNW,329,0.0,0.0,42,0.00,,,0.00,,2013-08-10 21:02:00,
2013-08-10 16:12:00,82.0,57.0,30.07,NNW,342,0.0,0.0,43,0.00,,,0.00,,2013-08-10 21:12:00,
2013-08-10 16:22:00,81.0,56.0,30.07,NNW,340,0.0,0.0,43,0.00,,,0.00,,2013-08-10 21:22:00,
2013-08-10 16:32:00,80.0,55.0,30.07,NNE,13,0.0,0.0,43,0.00,,,0.00,,2013-08-10 21:32:00,
2013-08-10 16:42:00,80.0,57.0,30.07,NNE,27,0.0,0.0,45,0.00,,,0.00,,2013-08-10 21:42:00,
2013-08-10 16:52:00,80.0,57.0,30.07,NNW,335,0.0,0.0,46,0.00,,,0.00,,2013-08-10 21:52:00,
2013-08-10 17:01:00,79.0,55.0,30.07,NNW,342,0.0,0.0,44,0.00,,,0.00,,2013-08-10 22:01:00,
2013-08-10 17:11:00,79.0,56.0,30.07,WNW,286,0.0,0.0,45,0.00,,,0.00,,2013-08-10 22:11:00,
2013-08-10 17:21:00,78.0,56.0,30.07,NNW,343,0.0,0.0,46,0.00,,,0.00,,2013-08-10 22:21:00,
2013-08-10 17:32:00,78.0,56.0,30.07,NNW,344,0.0,0.0,47,0.00,,,0.00,,2013-08-10 22:32:00,
2013-08-10 17:52:00,76.0,55.0,30.07,North,355,0.0,0.0,49,0.00,,,0.00,,2013-08-10 22:52:00,
2013-08-10 18:01:00,76.0,57.0,30.07,North,355,0.0,0.0,51,0.00,,,0.00,,2013-08-10 23:01:00,
2013-08-10 18:12:00,76.0,58.0,30.07,North,355,0.0,0.0,53,0.00,,,0.00,,2013-08-10 23:12:00,
2013-08-10 18:22:00,76.0,56.0,30.07,North,355,0.0,0.0,50,0.00,,,0.00,,2013-08-10 23:22:00,
2013-08-10 18:32:00,76.0,56.0,30.07,NNW,331,0.0,0.0,50,0.00,,,0.00,,2013-08-10 23:32:00,
2013-08-10 18:43:00,76.0,57.0,30.07,NNW,331,0.0,0.0,52,0.00,,,0.00,,2013-08-10 23:43:00,
2013-08-10 18:53:00,75.0,57.0,30.06,NNW,331,0.0,0.0,54,0.00,,,0.00,,2013-08-10 23:53:00,
2013-08-10 19:02:00,75.0,57.0,30.06,NNW,331,0.0,0.0,53,0.00,,,0.00,,2013-08-11 00:02:00,
2013-08-10 19:11:00,75.0,57.0,30.06,NNW,331,0.0,0.0,54,0.00,,,0.00,,2013-08-11 00:11:00,
2013-08-10 19:22:00,74.0,57.0,30.06,NNW,331,0.0,0.0,55,0.00,,,0.00,,2013-08-11 00:22:00,
2013-08-10 19:32:00,74.0,57.0,30.06,NNW,331,0.0,0.0,55,0.00,,,0.00,,2013-08-11 00:32:00,
2013-08-10 19:42:00,74.0,57.0,30.06,NNW,331,0.0,0.0,55,0.00,,,0.00,,2013-08-11 00:42:00,
2013-08-10 19:52:00,73.0,56.0,30.06,NNW,331,0.0,0.0,56,0.00,,,0.00,,2013-08-11 00:52:00,
2013-08-10 20:01:00,73.0,57.0,30.06,NNW,331,0.0,0.0,58,0.00,,,0.00,,2013-08-11 01:01:00,
2013-08-10 20:11:00,72.0,56.0,30.06,NNW,331,0.0,0.0,58,0.00,,,0.00,,2013-08-11 01:11:00,
2013-08-10 20:22:00,71.0,56.0,30.07,NNW,331,0.0,0.0,59,0.00,,,0.00,,2013-08-11 01:22:00,
2013-08-10 20:32:00,71.0,57.0,30.07,NNW,331,0.0,0.0,61,0.00,,,0.00,,2013-08-11 01:32:00,
2013-08-10 20:43:00,70.0,56.0,30.07,NNW,331,0.0,0.0,62,0.00,,,0.00,,2013-08-11 01:43:00,
2013-08-10 20:53:00,69.0,56.0,30.08,NNW,331,0.0,0.0,64,0.00,,,0.00,,2013-08-11 01:53:00,
2013-08-10 21:02:00,69.0,57.0,30.08,NNW,331,0.0,1.0,66,0.00,,,0.00,,2013-08-11 02:02:00,
2013-08-10 21:11:00,68.0,57.0,30.08,NNW,331,0.0,0.0,67,0.00,,,0.00,,2013-08-11 02:11:00,
2013-08-10 21:22:00,67.0,56.0,30.09,NNW,331,0.0,0.0,69,0.00,,,0.00,,2013-08-11 02:22:00,
2013-08-10 21:32:00,67.0,57.0,30.09,NNW,331,0.0,0.0,71,0.00,,,0.00,,2013-08-11 02:32:00,
2013-08-10 21:43:00,66.0,57.0,30.09,NNW,331,0.0,0.0,73,0.00,,,0.00,,2013-08-11 02:43:00,
2013-08-10 21:56:00,65.0,56.0,30.09,NNW,331,0.0,0.0,74,0.00,,,0.00,,2013-08-11 02:56:00,
2013-08-10 22:05:00,65.0,57.0,30.09,NNW,331,0.0,0.0,75,0.00,,,0.00,,2013-08-11 03:05:00,
2013-08-10 22:17:00,64.0,57.0,30.09,NNW,331,0.0,0.0,79,0.00,,,0.00,,2013-08-11 03:17:00,
2013-08-10 22:27:00,64.0,57.0,30.09,NNW,331,0.0,0.0,79,0.00,,,0.00,,2013-08-11 03:27:00,
2013-08-10 22:35:00,63.0,57.0,30.09,NNW,331,0.0,0.0,80,0.00,,,0.00,,2013-08-11 03:35:00,
2013-08-10 22:44:00,63.0,57.0,30.09,NNW,331,0.0,0.0,81,0.00,,,0.00,,2013-08-11 03:44:00,
2013-08-10 22:54:00,63.0,57.0,30.09,NNW,331,0.0,0.0,81,0.00,,,0.00,,2013-08-11 03:54:00,
2013-08-10 23:01:00,62.0,56.0,30.09,NNW,331,0.0,0.0,82,0.00,,,0.00,,2013-08-11 04:01:00,
2013-08-10 23:12:00,62.0,57.0,30.09,NNW,331,0.0,0.0,84,0.00,,,0.00,,2013-08-11 04:12:00,
2013-08-10 23:22:00,62.0,57.0,30.08,NNW,332,0.0,0.0,85,0.00,,,0.00,,2013-08-11 04:22:00,
2013-08-10 23:32:00,62.0,57.0,30.08,NNW,332,0.0,0.0,85,0.00,,,0.00,,2013-08-11 04:32:00,
2013-08-10 23:43:00,62.0,58.0,30.08,NNW,332,0.0,0.0,86,0.00,,,0.00,,2013-08-11 04:43:00,
2013-08-10 23:53:00,62.0,58.0,30.08,NNW,332,0.0,0.0,86,0.00,,,0.00,,2013-08-11 04:53:00,